Location: Irządze
(50.6179°N, 19.6765°E)
Time: 23:52:09
(UTC+01:00)

ISS - Visible Passes

Search period start: 23 January 2019 00:00
Search period end: 02 February 2019 00:00
Orbit: 404 x 410 km, 51.6° (Epoch: 24 January)

Date Brightness Start Highest point End Pass type
(mag) Time Alt. Az. Time Alt. Az. Time Alt. Az.
23 Jan -1.6 18:39:49 10° SSW 18:41:05 19° SSW 18:41:05 19° SSW visible
24 Jan -2.0 17:49:08 10° S 17:51:31 19° SE 17:52:04 18° SE visible
24 Jan -0.6 19:24:21 10° WSW 19:24:47 13° WSW 19:24:47 13° WSW visible
25 Jan -1.4 16:59:05 10° SSE 17:00:23 12° SE 17:01:41 10° ESE visible
25 Jan -2.9 18:33:07 10° SW 18:35:41 41° SSW 18:35:41 41° SSW visible
26 Jan -2.8 17:42:01 10° SW 17:45:02 33° SSE 17:46:30 22° ESE visible
26 Jan -1.1 19:18:05 10° W 19:19:14 20° W 19:19:14 20° W visible
27 Jan -3.9 18:26:42 10° WSW 18:29:59 79° SSE 18:29:59 79° SSE visible
28 Jan -3.5 17:35:23 10° WSW 17:38:38 58° SSE 17:40:43 20° E visible
28 Jan -1.5 19:11:51 10° W 19:13:26 25° W 19:13:26 25° W visible
29 Jan -3.9 18:20:25 10° W 18:23:43 79° N 18:24:07 65° ENE visible
30 Jan -3.8 17:28:58 10° WSW 17:32:16 87° SSE 17:34:47 16° ENE visible
30 Jan -2.0 19:05:35 10° W 19:07:30 31° WNW 19:07:30 31° WNW visible
31 Jan -3.8 18:14:07 10° W 18:17:25 71° N 18:18:09 49° ENE visible
31 Jan -0.2 19:50:42 10° WNW 19:50:52 11° WNW 19:50:52 11° WNW visible
01 Feb -3.8 17:22:37 10° W 17:25:55 75° N 17:28:49 13° E visible
01 Feb -2.5 18:59:14 10° WNW 19:01:32 41° WNW 19:01:32 41° WNW visible
